Other Public Products
Issued by NWS Grand Forks, ND

Home | Current Version | Previous Version | Graphics & Text | Print | Product List | Glossary On
Versions: 1 2 3 4 5 6 7 8 9 10 11 12 13 14 15 16 17 18 19 20 21 22 23 24 25 26 27 28 29 30 31 32 33 34 35 36 37 38 39 40 41 42 43 44 45 46 47 48 49 50
000
FPUS83 KFGF 250210
OPUFGF
PRAIRIE TO PINES WEATHER ROUNDUP
NATIONAL WEATHER SERVICE EASTERN NORTH DAKOTA/GRAND FORKS ND
900 PM CDT MON APR 24 2017

 **SATELLITE DATA USED TO AUGMENT SKY COVER AT AUTOMATED STATIONS**
 *****  WEATHER ACROSS EASTERN NORTH DAKOTA  *****

CITY           SKY/WX    TMP DP  RH WIND       PRES   REMARKS
GRAND FORKS    CLOUDY    36  34  92 N17G24    29.66R
GRAND FORKS AF CLOUDY    32  32 100 N15       29.68R WCI  22
GRAND CITY NWS NOT AVBL
BUXTON         NOT AVBL
DEVILS LAKE    CLOUDY    31  30  96 NE16      29.72R WCI  20
FARGO          CLOUDY    39  37  92 N20       29.59R
WAHPETON ARPT  CLOUDY    41  37  87 NW21      29.57R
$$

 *****  WEATHER ACROSS CENTRAL AND WESTERN NORTH DAKOTA  *****

CITY           SKY/WX    TMP DP  RH WIND       PRES   REMARKS
JAMESTOWN      CLOUDY    33  32  96 N15       29.65R WCI  23
BISMARCK       CLOUDY    35  30  82 N14       29.71R
MINOT          CLOUDY    33  28  81 N10       29.77R WCI  25
MINOT AFB      CLOUDY    32  27  80 NE16      29.77R WCI  21
GARRISON         N/A     31  27  85 NE10      29.74R WCI  22
WILLISTON      CLOUDY    32  26  78 NE15      29.78R WCI  22
DICKINSON      CLOUDY    31  27  85 NE16      29.68R WCI  20
HETTINGER      CLOUDY    36  31  82 NE15      29.67R
$$

 *****  OTHER OBSERVATIONS NORTHEAST NORTH DAKOTA  *****

CITY           SKY/WX    TMP DP  RH WIND       PRES   REMARKS
WALHALLA       NOT AVBL
LANGDON        DRIZZLE   30  30 100 N21       29.73R WCI  17
CAVALIER       CLOUDY    32  28  86 N15       29.73R WCI  22
GRAFTON        CLOUDY    32  32 100 N18       29.72R FOG     WCI  20
CANDO          NOT AVBL
FORT TOTTEN      N/A     31  31 100 N7        29.95S WCI  24
ROLLA          CLOUDY    28  28 100 NE18      29.76R WCI  16
RUGBY          NOT AVBL
 ***** THE ABOVE OBSERVATIONS ARE NON NWS ARE NOT QUALITY
        CONTROLLED AND MAY MIS-REPORT RAIN FOR SNOW...
$$

 *****  OTHER OBSERVATIONS SOUTHEAST NORTH DAKOTA *****

CITY           SKY/WX    TMP DP  RH WIND       PRES   REMARKS
COOPERSTOWN    CLOUDY    34  32  93 N17G24    29.67R WCI  23
VALLEY CITY    MIX PCPN  32  32 100 N17G24    29.65R WCI  21
OAKES          NOT AVBL
GWINNER        CLOUDY    37  36  93 MISG      29.61R
SHEYENNE NWR     N/A     37  35  91 N13       29.95S
BUFFALO        NOT AVBL
WYNDMERE         N/A     39  39 100 NW17        N/A
 ***** THE ABOVE OBSERVATIONS ARE NON NWS ARE NOT QUALITY
       CONTROLLED AND MAY MIS-REPORT RAIN FOR SNOW...
$$

  *****  WEATHER ACROSS NORTHERN MINNESOTA  *****

CITY           SKY/WX    TMP DP  RH WIND       PRES   REMARKS
FLAG ISLAND    CLOUDY    30  28  93 NE17      29.71R WCI  18
WARROAD        LGT SNOW  34  28  80 NE17G25   29.69R WCI  23
ROSEAU         CLOUDY    34  28  80 NE17      29.68S WCI  23
HALLOCK        CLOUDY    34  30  86 N14       29.71R WCI  24
THF RVR FALLS  NOT AVBL
HALSTAD          N/A     37  36  93 N21         N/A
FOSSTON        CLOUDY    39  37  93 N9        29.56R
BAUDETTE       CLOUDY    34  32  92 NE8       29.65S
WASKISH        CLOUDY    37  37 100 E13       29.60S
CROOKSTON      CLOUDY    36  36 100 N13       29.63R
$$
  *****  WEATHER ACROSS CENTRAL AND WEST MINNESOTA  *****

CITY           SKY/WX    TMP DP  RH WIND       PRES   REMARKS
BEMIDJI        CLOUDY    42  41  97 E9        29.56S
PARK RAPIDS    LGT RAIN  50  46  86 E8        29.53F
WADENA         CLOUDY    48  45  87 NE6       29.52S
DETROIT LAKES  MOCLDY    50  46  87 CALM      29.53S
MOORHEAD       CLOUDY    39  37  93 N22       29.58R
FERGUS FALLS   CLOUDY    46  46 100 NW9       29.52R
ELBOW LAKE     CLOUDY    49  48  97 NW9       29.52R
MORRIS MN      CLOUDY    52  48  87 NW17      29.52R
STAPLES        LGT RAIN  48  46  93 NE7       29.53S
WHEATON        CLOUDY    45  39  81 NW16G24   29.58R
$$
  *****  WEATHER ELSEWHERE ACROSS MINNESOTA  *****

CITY           SKY/WX    TMP DP  RH WIND       PRES   REMARKS
DULUTH         LGT RAIN  36  32  85 E14       29.65F
INTRNTL FALLS  LGT RAIN  36  33  89 E14G23    29.67S
ELY            CLOUDY    37  28  70 NE5       29.71R
CLOQUET        CLOUDY    36  32  87 E13G22    29.63S
BRAINERD       CLOUDY    55  40  56 E3        29.54F
HIBBING        CLOUDY    37  34  89 E8        29.62F
ALEXANDRIA     CLOUDY    58  42  55 S8        29.51R
SAINT CLOUD    CLOUDY    56  41  57 NE3       29.52F
MINNEAPOLIS    CLOUDY    66  33  29 SE12      29.55F
$$

  *****  WEATHER ACROSS SOUTH DAKOTA  *****

CITY           SKY/WX    TMP DP  RH WIND       PRES   REMARKS
SIOUX FALLS    FAIR      56  45  66 NW12      29.52R
BROOKINGS      CLOUDY    53  43  68 NW9       29.54R
WATERTOWN      MOCLDY    44  39  82 NW21G26   29.56R
HURON          MOCLDY    46  38  73 N15       29.61R
SISSETON         N/A     40  38  93 NW22G32   29.57R
ABERDEEN       CLOUDY    39  33  79 N18       29.64R
MITCHELL       FAIR      51  40  65 NW16      29.59R
PIERRE         FAIR      42  35  76 N16       29.62R
MOBRIDGE       CLOUDY    41  32  70 N13       29.64R
RAPID CITY     MOCLDY    51  38  60 NE12      29.58S
$$

  *****  SOME WEATHER IN NEARBY STATES *****

CITY           SKY/WX    TMP DP  RH WIND       PRES   REMARKS
GLASGOW MT     CLOUDY    35  26  69 E18       29.74R WCI  24
GREAT FALLS MT CLOUDY    47  37  68 NE14      29.62R
CHEYENNE WY    LGT RAIN  41  39  93 E5        29.62S
SCOTTSBLUFF NE LGT RAIN  55  41  59 N3        29.57F
OMAHA NE       MOCLDY    69  43  38 S13       29.51S
DES MOINES IA  FAIR      65  32  29 SE9       29.60R
DAVENPORT IA   FAIR      63  31  30 SE12      29.67F
CHICAGO IL     FAIR      58  32  37 E6        29.77R
EAU CLAIRE WI  CLOUDY    66  29  24 S8G16     29.64R
LA CROSSE WI   MOCLDY    66  35  31 SE7       29.63R
$$

  *****  SOME NATIONAL WEATHER *****

CITY           SKY/WX    TMP DP  RH WIND       PRES   REMARKS
LA GUARDIA NY  CLOUDY    53  46  77 NE9       30.14R
RALEIGH NC     HVY RAIN  60  59  96 NE13      29.71R FOG
ATLANTA GA     MOCLDY    61  58  90 NW10      29.73S
NEW ORLEANS LA FAIR      62  57  83 W3        29.80S
OKLAHOMA CITY  MOCLDY    65  50  58 S13       29.58S
ALBUQUERQUE NM MOCLDY    74  13   9 W16G26    29.69R
SALT LAKE CITY CLOUDY    48  42  80 E5        29.72F
LOS ANGELES CA MOCLDY    61  52  72 W23       29.87F
BOISE ID       CLOUDY    48  40  73 NE8       29.72S
SEATTLE WA     FAIR      53  45  74 SW8       29.81R
$$

*** WEATHER ACROSS MANITOBA...SASKATCHEWAN AND ONTARIO ***
                ***ONTARIO***

CITY           SKY/WX    TMP DP  RH WIND       PRES   REMARKS
GERALDTON      CLOUDY    30  25  80 E20       30.00R WCI  18
THUNDER BAY    CLOUDY    37  30  75 NE20      29.84R
SIOUX LOOKOUT  LGT SNOW  27  25  93 E10       29.83S VSB 5/8 WCI  17
TORONTO        PTCLDY    48  32  53 E7        30.08R
BIG TROUT LK   MOCLDY    19   1  45 NE7G17    30.22R WCI  10
PICKLE LAKE    LGT SNOW  25  23  93 E10G24    29.98F VSB 3/4 WCI  15
DRYDEN         LGT SNOW  28  27  93 NE16G24   29.75S WCI  17
KENORA         LGT SNOW  28  27  93 NE15G24   29.74S DRFTSNOWWCI  17
$$
                *** MANITOBA***

CITY           SKY/WX    TMP DP  RH WIND       PRES   REMARKS
BRANDON        FLURRIES  30  27  86 E10       29.85R WCI  21
DAUPHIN        CLOUDY    32  19  59 NE17      29.93S WCI  21
ISLAND LAKE    MOCLDY    23   3  42 NE12G20   30.15  WCI  12
PILOT MOUND      N/A     30  27  86 NE16G24     N/A  WCI  19
THE PAS        PTCLDY    30   3  31 E8        30.08R WCI  23
THOMPSON       PTCLDY    19   0  42 NE8       30.23R WCI   9
WINNIPEG       CLOUDY    32  27  80 NE20G26   29.82R WCI  20
LYNN LAKE      CLEAR     19   1  45 E8        30.18R WCI   9
CHURCHILL      FLURRIES   3  -2  78 CALM      30.43S
GILLAM         PTCLDY     7  -4  61 E5        30.34R WCI  -2
$$
                ***SASKATCHEWAN***

CITY           SKY/WX    TMP DP  RH WIND       PRES   REMARKS
ESTEVAN        FRZ DRZL  28  27  93 NE16      29.83R WCI  17
KINDERSLEY     CLOUDY    32  25  74 E16G22    29.82R WCI  21
LLOYDMINSTER   LGT SNOW  30  30 100 SE13G18   29.86R WCI  20
PRINCE ALBERT  FLURRIES  32  25  74 E10       29.98R WCI  24
REGINA         CLOUDY    28  21  74 E16       29.88R WCI  17
YORKTON        FLURRIES  28  23  80 E14       29.93R WC



USA.gov is the U.S. government's official web portal to all federal, state and local government web resources and services.